Orbital Elements at Epoch 2459000.5 (2020-May-31.0) TDB
Reference: JPL 21 (heliocentric ecliptic J2000)
Element | Value | Uncertainty (1-sigma) | Units |
e | .1911417962627112 | 4.0006e-08 | |
a | 2.306553374527966 | 8.9617e-09 | au |
q | 1.865674619344873 | 9.227e-08 | au |
i | 6.906289931751042 | 5.1339e-06 | deg |
node | 146.3875158211453 | 2.7925e-05 | deg |
peri | 241.0941309919326 | 3.0661e-05 | deg |
M | 142.5188787290059 | 1.3671e-05 | deg |
tp | 2458493.960186449561 (2019-Jan-10.46018645) | 4.7697e-05 | TDB |
period | 1279.510016528392 3.50 | 7.4569e-06 2.042e-08 | d yr |
n | .2813577036127969 | 1.6397e-09 | deg/d |
Q | 2.74743212971106 | 1.0675e-08 | au |
|
| | Orbit Determination Parameters
Additional Information
|